Location: Penticton
(49.5000°N, 119.5830°W)
Time: 16:14:54
(UTC-08:00)

Daily predictions for brighter satellites

Satellite Brightness Start Highest point End
(mag) Time Altitude Azimuth Time Altitude Azimuth Time Altitude Azimuth
Geosat 4.2 17:52:50 10° NNE 17:57:54 81° WNW 18:02:56 10° SW
Cosmos 1536 Rocket 4.2 17:55:33 10° N 17:59:39 34° ENE 18:03:44 10° SE
ALOS 3.1 17:57:21 10° SE 18:01:24 30° ENE 18:05:29 10° N
Cosmos 2333 Rocket 3.9 18:01:07 10° N 18:04:46 17° NNE 18:08:25 10° ENE
SL-08 R/B 4.5 18:00:48 10° S 18:06:54 77° E 18:13:07 10° NNE
BREEZE-M DEB (TANK) 1.7 18:05:31 10° W 18:07:39 67° SSW 18:11:05 10° ESE
Meteor 1-18 Rocket 4.2 18:02:16 10° N 18:07:51 77° ENE 18:13:27 10° SSE
Sich 1 Rocket 4.5 18:03:45 10° SSW 18:08:15 56° WNW 18:12:48 10° N
Cosmos 2082 Rocket 3.5 18:05:13 10° WSW 18:10:34 41° NW 18:15:59 10° NNE
Cosmos 1484 Rocket 3.9 18:06:45 10° S 18:10:37 51° W 18:14:28 10° NNW
SL-16 R/B 2.3 18:05:26 10° NNW 18:11:10 84° WSW 18:16:50 10° SSE
SJ-6B 3.1 18:08:06 10° SE 18:11:57 46° ENE 18:15:44 10° N
ATLAS CENTAUR R/B 3.1 18:08:12 10° W 18:12:13 31° NW 18:16:01 10° NNE
Cosmos 1340 3.4 18:10:00 10° N 18:13:28 33° ENE 18:16:54 10° SE
NOSS 2-2 (C) 3.6 18:10:33 10° SSW 18:14:39 74° SE 18:19:36 10° NE
Nadezhda 1 Rocket 4.0 18:09:45 10° N 18:15:54 86° E 18:21:58 10° S
DNEPR-1 R/B 4.0 18:13:01 10° NW 18:17:20 64° SW 18:21:29 10° SSE
Cosmos 1238 Rocket 3.2 18:16:43 10° NNE 18:19:23 24° ENE 18:21:54 10° SE
Resurs 01 Rocket 2.3 18:15:54 10° SE 18:19:51 33° ENE 18:23:49 10° N
FengYun 1-2 T 4.5 18:15:38 10° SE 18:20:50 47° ENE 18:26:06 10° N
Cosmos 1782 Rocket 4.0 18:18:07 10° SSW 18:22:33 69° WNW 18:27:02 10° N
Meteor 1-28 Rocket 3.1 18:19:07 10° NNE 18:22:57 79° E 18:26:46 10° S
Tiangong 2 3.6 18:21:00 10° WSW 18:23:01 16° SSW 18:25:02 10° SSE
Cosmos 407 Rocket 3.8 18:18:22 10° S 18:23:23 47° ESE 18:28:28 10° NNE
Cosmos 2322 Rocket 2.8 18:23:26 10° NW 18:28:59 62° WSW 18:34:30 10° SSE
Meteor 1-20 Rocket 4.3 18:23:15 10° S 18:29:01 69° E 18:34:51 10° NNE
Genesis I 4.0 18:25:28 10° NNW 18:29:07 34° NE 18:31:56 15° E
Cosmos 2181 Rocket 4.1 18:24:07 10° N 18:30:12 53° ENE 18:36:21 10° SSE
COSMO-SKYMED 1 2.9 18:27:09 10° N 18:31:29 72° WNW 18:35:48 10° SSW
Cosmos 1300 Rocket 4.2 18:31:37 10° SSE 18:35:32 32° E 18:39:30 10° NNE
Cosmos 1536 4.1 18:33:46 10° SE 18:36:39 19° E 18:39:33 10° NE
Meteor 1-13 Rocket 4.2 18:31:15 10° N 18:36:44 59° ENE 18:42:15 10° SSE
Okean 1 3.4 18:33:45 10° N 18:37:50 87° W 18:41:54 10° S
Okean 2 Rocket 3.8 18:37:04 10° SSW 18:41:28 59° WNW 18:45:53 10° N
Cosmos 2322 3.7 18:36:09 10° NNW 18:41:53 67° ENE 18:47:34 10° SE
USA 186 3.3 18:42:24 18° NE 18:42:24 18° NE 18:44:03 10° NNE
Cosmos 1461 4.1 18:38:12 10° NW 18:41:59 42° WSW 18:45:50 10° SSE
CZ-2D R/B 3.9 18:38:43 10° SE 18:42:09 33° ENE 18:45:36 10° N
Resurs 1-3 3.9 18:38:08 10° SE 18:42:19 45° ENE 18:46:31 10° N
deb Kosmos-1763 4.0 18:40:46 10° SSW 18:44:34 84° ESE 18:48:23 10° NNE
Cosmos 1140 Rocket 4.0 18:43:47 10° SSE 18:48:23 34° ESE 18:53:01 10° NE
Cosmos 2208 Rocket 4.4 18:43:13 10° NNW 18:48:29 45° ENE 18:53:07 13° SE
Cosmos 1190 Rocket 3.9 18:43:51 10° SSW 18:49:02 86° ESE 18:54:17 10° NNE
FENGYUN 3A 3.6 18:44:18 10° SSE 18:49:42 77° ENE 18:55:09 10° NNW
H-2A R/B 2.8 18:47:36 10° SSE 18:51:12 51° ENE 18:54:52 10° N
Cosmos 1812 4.4 18:50:31 10° NNW 18:54:06 36° W 18:57:39 10° SSW
Cosmos 1709 Rocket 3.9 18:48:21 10° S 18:54:32 71° E 19:00:41 10° NNE
COSMOS 2428 3.0 18:49:24 10° NNW 18:54:56 49° NE 18:59:03 18° ESE
Cosmos 2237 4.3 18:49:50 10° NNW 18:55:32 60° ENE 19:00:37 13° SE
Meteor 2-4 Rocket 3.8 18:50:26 10° N 18:55:59 54° ENE 19:01:19 10° SSE
SAR-Lupe-4 3.8 18:55:00 17° SE 18:57:30 45° ENE 19:00:58 10° N
SL-19 R/B 4.3 18:52:14 10° SSE 18:57:55 82° ENE 19:04:02 10° NNW
Spot 2 Rocket 3.4 18:53:27 10° SSE 18:58:29 74° ENE 19:03:34 10° NNW
Cosmos 2151 Rocket 3.8 18:55:37 10° SSW 19:00:07 78° W 19:04:42 10° N
Helios 1A 3.2 18:58:08 16° SE 19:01:11 45° ENE 19:05:10 10° N
Cosmos 2292 Rocket 4.4 18:56:16 10° S 19:01:32 89° E 19:08:42 10° N
Cosmos 2237 Rocket 3.3 18:59:16 10° NNW 19:04:01 26° NE 19:05:43 23° ENE
HJ-1C 3.8 19:02:53 10° S 19:06:14 66° WSW 19:09:37 10° NNW
Okean 1 Rocket 3.2 19:02:10 10° SSE 19:06:31 50° E 19:10:52 10° NNE
GEOS 3 Rocket 3.7 19:09:23 17° NE 19:13:28 59° SE 19:18:40 10° SSW
Envisat 3.5 19:13:16 30° ESE 19:14:48 37° ENE 19:19:28 10° N
USA 229 DEB 3.8 19:08:17 10° NW 19:15:22 66° NE 19:19:44 26° ESE
USA 229 3.8 19:08:23 10° NW 19:15:28 66° NE 19:19:48 26° ESE
Cosmos 2285 Rocket 4.2 19:09:22 10° NNW 19:15:43 54° ENE 19:19:32 24° SE
Meteor 1-11 Rocket 3.7 19:10:46 10° S 19:16:32 71° E 19:22:27 10° NNE
Cosmos 1954 Rocket 3.9 19:11:34 10° SSW 19:16:44 75° ESE 19:22:00 10° NNE
Helios 1B rocket 4.4 19:13:23 10° NNE 19:20:32 14° SSE 19:21:08 10° SSE
Okean 1-7 Rocket 3.5 19:16:27 10° N 19:21:02 79° E 19:25:32 10° SSE
Cosmos 2360 Rocket 2.7 19:15:32 10° NW 19:21:07 61° WSW 19:26:40 10° S
Cosmos 2219 3.7 19:17:37 10° S 19:22:45 34° ESE 19:23:09 34° E
Cosmos 1633 2.8 19:19:21 10° SSW 19:23:02 72° W 19:26:45 10° N
Cosmos 2219 Rocket 2.5 19:18:48 10° NNW 19:24:13 47° NE 19:25:54 37° E
Cosmos 1602 3.8 19:20:37 10° SSW 19:24:29 77° W 19:28:25 10° N
ERS-1 Rocket 3.8 19:25:34 31° ENE 19:25:34 31° ENE 19:29:53 10° N
H-2A R/B 4.2 19:26:52 12° NE 19:26:52 12° NE 19:27:51 10° NNE
NOSS 3-1 (A) 4.5 19:20:52 10° NW 19:27:37 42° NNE 19:30:52 29° ENE
Okean 2 3.6 19:24:16 10° N 19:28:11 49° ENE 19:28:11 49° ENE
Cosmos 1025 Rocket 2.9 19:26:02 10° N 19:30:25 75° E 19:32:29 31° SSE
ATLAS 2AS CENTAUR R/B 4.2 19:25:33 10° NW 19:32:38 31° N 19:36:51 20° NE
USA 215 3.9 19:29:06 22° ENE 19:33:02 47° N 19:39:13 10° WNW
CZ-4B DEB 4.3 19:36:40 27° N 19:36:40 27° N 19:38:15 10° N
SL-16 R/B 3.5 19:31:28 10° N 19:35:53 22° NE 19:36:07 22° NE
ALOS 3.7 19:34:24 10° SSW 19:38:45 38° W 19:43:07 10° NNW
SJ-11-01 4.3 19:38:54 54° E 19:39:21 57° ENE 19:44:02 10° N
Spot 1 4.2 19:37:57 21° S 19:40:33 69° WSW 19:44:42 10° NNW
Meteor 2-13 Rocket 4.5 19:42:27 10° SSE 19:48:17 53° E 19:54:12 10° NNE
Cosmos 1833 4.3 19:42:38 10° SSW 19:48:20 78° WNW 19:54:01 10° NNE
NOSS 3-1 (C) 4.1 19:41:32 10° NW 19:48:38 57° NE 19:51:11 41° E
Cosmos 2333 Rocket 2.2 19:44:36 10° NNW 19:50:18 59° NE 19:51:05 54° E
ATLAS CENTAUR R/B 4.0 19:50:50 10° NW 19:52:29 12° NNW 19:54:04 10° N
Cosmos 1818 3.9 19:47:46 10° SW 19:53:11 64° NW 19:56:40 23° NNE
BREEZE-M DEB (TANK) 4.2 19:51:23 10° W 19:54:42 48° SSW 19:56:45 35° SSE
Resurs 01 Rocket 3.4 19:52:25 10° SSW 19:56:20 31° W 20:00:16 10° NNW
Cosmos 1741 Rocket 3.8 19:52:03 10° SSW 19:57:16 79° ESE 19:59:12 40° NNE
SPOT 5 4.4 19:59:25 23° NNE 19:59:25 23° NNE 20:01:53 10° N
Cosmos 1939 Rocket 4.1 20:03:28 33° N 20:03:28 33° N 20:05:46 10° N
NOSS 0 Rocket 3.8 19:56:06 10° NNW 20:02:18 74° ENE 20:03:16 62° ESE
Cosmos 1980 3.7 19:56:49 10° NNW 20:02:25 59° ENE 20:02:25 59° ENE
USA 186 4.4 20:13:48 19° NW 20:13:48 19° NW 20:15:00 10° NW
Cosmos 1536 4.1 20:09:04 10° SW 20:12:50 40° WNW 20:16:38 10° N
Cosmos 1610 Rocket 4.3 20:06:43 10° S 20:12:57 83° E 20:19:10 10° N
Cosmos 1763 Rocket 4.2 20:09:17 10° NNW 20:12:54 40° NNE 20:12:54 40° NNE
Meteor 1-5 Rocket 4.4 20:10:05 10° SSW 20:16:03 77° WNW 20:22:00 10° N
Cosmos 405 Rocket 4.2 20:14:58 10° NNW 20:17:35 36° NNW 20:17:35 36° NNW
Cosmos 468 Rocket 4.4 20:29:35 10° NNW 20:34:15 60° WNW 20:34:15 60° WNW
COSMOS 2428 4.1 20:34:01 10° NW 20:39:02 33° WSW 20:41:08 25° SW
Cosmos 2237 Rocket 2.7 20:42:58 10° NNW 20:47:35 57° NW 20:47:35 57° NW
Envisat 4.3 20:53:27 34° WSW 20:53:51 34° W 20:58:30 10° NNW
H-2A R/B 4.0 21:07:30 23° N 21:07:30 23° N 21:09:28 10° N
ERS-1 Rocket 4.4 21:05:33 34° WNW 21:05:33 34° WNW 21:08:56 10° NNW
Cosmos 2219 4.3 21:01:12 10° SW 21:05:16 39° W 21:05:16 39° W
Cosmos 2219 Rocket 3.5 21:03:03 10° NW 21:07:40 33° W 21:07:40 33° W
USA 215 3.8 21:16:26 51° NNW 21:16:26 51° NNW 21:21:50 10° WNW
NOSS 3-1 (A) 4.1 21:11:47 10° NW 21:18:20 69° WNW 21:18:20 69° WNW
SL-16 R/B 3.7 21:15:05 10° NNW 21:18:01 32° NNW 21:18:01 32° NNW
ATLAS 2AS CENTAUR R/B 3.6 21:17:29 10° NW 21:24:17 50° N 21:24:17 50° N
Cosmos 2333 Rocket 4.1 21:29:28 10° NW 21:33:07 25° W 21:33:07 25° W
